{"data":{"norad_id":53100,"epoch":"2026-05-25T03:47:39.471072Z","epoch_age_seconds":51547,"freshness":"FRESH","line1":"1 53100U 22078A   26145.15809573  .00000070  00000+0  00000+0 0  9999","line2":"2 53100   0.6132  76.4845 0001914 307.5444 286.2106  1.00272458 14312","mean_motion":1.00272458,"eccentricity":0.0001914,"inclination_deg":0.6132,"raan_deg":76.4845,"arg_perigee_deg":307.5444,"mean_anomaly_deg":286.2106,"bstar":0,"rev_number":1431,"period_min":1436.0872653585,"perigee_km":35778.336002328,"apogee_km":35794.476589502,"semimajor_km":42164.543295915,"source":"CELESTRAK","updated_at":"2026-05-25T13:38:14.109306Z"}}